Location: Aressy
(43.2833°N, 0.3167°W)
Time: 18:08:47
(UTC+00:00)

Cosmos 2150 Rocket - Pass Details

Date: 28 January 2021
Orbit: 748 x 808 km, 74.0° (Epoch: 02 March)

Event Time Altitude Azimuth Distance (km) Brightness Sun altitude
Rises 18:36:16 0° 180° (S) 3,180 7.3 -16.1°
Reaches altitude 10° 18:38:41 10° 174° (S) 2,263 6.5 -16.6°
Maximum altitude 18:43:31 44° 103° (ESE) 1,041 4.2 -17.4°
Enters shadow 18:45:57 26° 48° (NE) 1,458 5.0 -17.9°
